• Em Portugal
  • Lista de países
  • Para 7 dias
  • Temperatura da água
  • Mapas de satélite
  • Mapa do tempo
  • Widgets de tempo
  • user-avatar
    Iniciar Sessão

    Previsão horária em Tuzla

    Hoje, 21 Setembro, Sexta-feira

    Tempo Temperatura Precipitação Vento Pressão Humidade
    00:00 +19°C° 0 mm 1 m/s 723 mmHg 73%
    01:00 +18°C° 0 mm 1 m/s 723 mmHg 74%
    02:00 +18°C° 0 mm 1 m/s 723 mmHg 75%
    03:00 +18°C° 0 mm 1 m/s 723 mmHg 77%
    04:00 +18°C° 0 mm 1 m/s 723 mmHg 78%
    05:00 +19°C° 0 mm 1 m/s 723 mmHg 76%
    06:00 +19°C° 0 mm 1 m/s 723 mmHg 74%
    07:00 +20°C° 0 mm 1 m/s 723 mmHg 69%
    08:00 +23°C° 0 mm 1 m/s 723 mmHg 61%
    09:00 +25°C° 0 mm 1 m/s 723 mmHg 52%
    10:00 +28°C° 0 mm 1 m/s 723 mmHg 44%
    11:00 +29°C° 0 mm 1 m/s 723 mmHg 41%
    12:00 +30°C° 0 mm 1 m/s 723 mmHg 38%
    13:00 +31°C° 0 mm 1 m/s 723 mmHg 35%
    14:00 +30°C° 0 mm 1 m/s 722 mmHg 37%
    15:00 +30°C° 0 mm 1 m/s 722 mmHg 39%
    16:00 +29°C° 0 mm 1 m/s 722 mmHg 41%
    17:00 +27°C° 0.1 mm 1 m/s 722 mmHg 49%
    18:00 +24°C° 0.1 mm 1 m/s 721 mmHg 56%
    19:00 +22°C° 0.1 mm 1 m/s 721 mmHg 64%
    20:00 +21°C° 0 mm 1 m/s 721 mmHg 67%
    21:00 +20°C° 0 mm 1 m/s 722 mmHg 71%
    22:00 +19°C° 0 mm 1 m/s 722 mmHg 74%
    23:00 +18°C° 0 mm 2 m/s 722 mmHg 76%

    Amanhã, 22 Setembro, Sábado

    Tempo Temperatura Precipitação Vento Pressão Humidade
    00:00 +17°C° 0 mm 2 m/s 722 mmHg 77%
    01:00 +17°C° 0 mm 2 m/s 722 mmHg 79%
    02:00 +17°C° 0 mm 2 m/s 722 mmHg 79%
    03:00 +16°C° 0 mm 2 m/s 722 mmHg 78%
    04:00 +16°C° 0 mm 1 m/s 722 mmHg 78%
    05:00 +18°C° 0 mm 1 m/s 722 mmHg 75%
    06:00 +19°C° 0 mm 1 m/s 723 mmHg 72%
    07:00 +20°C° 0 mm 1 m/s 723 mmHg 69%
    08:00 +21°C° 0 mm 2 m/s 724 mmHg 62%
    09:00 +24°C° 0 mm 2 m/s 724 mmHg 55%
    10:00 +26°C° 0 mm 2 m/s 725 mmHg 49%
    11:00 +26°C° 0.1 mm 3 m/s 725 mmHg 50%
    12:00 +25°C° 0.1 mm 3 m/s 725 mmHg 52%
    13:00 +25°C° 0.1 mm 4 m/s 725 mmHg 53%
    14:00 +22°C° 0 mm 4 m/s 725 mmHg 53%
    15:00 +21°C° 0 mm 4 m/s 725 mmHg 52%
    16:00 +20°C° 0 mm 3 m/s 726 mmHg 52%
    17:00 +18°C° 0 mm 3 m/s 726 mmHg 56%
    18:00 +16°C° 0 mm 2 m/s 726 mmHg 60%
    19:00 +14°C° 0 mm 1 m/s 726 mmHg 64%
    20:00 +13°C° 0 mm 1 m/s 726 mmHg 66%
    21:00 +12°C° 0 mm 0 m/s 726 mmHg 68%
    22:00 +11°C° 0 mm 0 m/s 727 mmHg 70%
    23:00 +11°C° 0 mm 0 m/s 727 mmHg 70%

    Depois de amanhã, 23 Setembro, Domingo

    Tempo Temperatura Precipitação Vento Pressão Humidade
    00:00 +10°C° 0 mm 0 m/s 727 mmHg 71%
    01:00 +10°C° 0 mm 0 m/s 727 mmHg 72%
    02:00 +10°C° 0 mm 0 m/s 726 mmHg 73%
    03:00 +10°C° 0 mm 0 m/s 726 mmHg 74%
    04:00 +9°C° 0 mm 0 m/s 726 mmHg 75%
    05:00 +11°C° 0 mm 0 m/s 726 mmHg 72%
    06:00 +12°C° 0 mm 0 m/s 727 mmHg 68%
    07:00 +13°C° 0 mm 0 m/s 727 mmHg 65%
    08:00 +18°C° 0 mm 1 m/s 727 mmHg 58%
    09:00 +21°C° 0 mm 1 m/s 727 mmHg 52%
    10:00 +24°C° 0 mm 1 m/s 727 mmHg 45%
    11:00 +25°C° 0 mm 1 m/s 727 mmHg 43%
    12:00 +27°C° 0 mm 1 m/s 727 mmHg 41%
    13:00 +29°C° 0 mm 1 m/s 727 mmHg 39%
    14:00 +28°C° 0 mm 1 m/s 726 mmHg 41%
    15:00 +28°C° 0 mm 1 m/s 726 mmHg 43%
    16:00 +28°C° 0 mm 1 m/s 725 mmHg 45%
    17:00 +25°C° 0 mm 1 m/s 725 mmHg 53%
    18:00 +23°C° 0 mm 1 m/s 725 mmHg 61%
    19:00 +20°C° 0 mm 1 m/s 724 mmHg 69%
    20:00 +20°C° 0 mm 1 m/s 724 mmHg 71%
    21:00 +19°C° 0 mm 1 m/s 724 mmHg 73%
    22:00 +18°C° 0 mm 2 m/s 724 mmHg 76%
    23:00 +18°C° 0 mm 2 m/s 723 mmHg 77%

    24 Setembro, Segunda-feira

    Tempo Temperatura Precipitação Vento Pressão Humidade
    00:00 +18°C° 0 mm 2 m/s 722 mmHg 79%
    01:00 +18°C° 0 mm 2 m/s 722 mmHg 81%
    02:00 +17°C° 0 mm 2 m/s 721 mmHg 81%
    03:00 +17°C° 0 mm 2 m/s 721 mmHg 82%
    04:00 +17°C° 0 mm 2 m/s 720 mmHg 82%
    05:00 +18°C° 0 mm 2 m/s 720 mmHg 79%
    06:00 +19°C° 0 mm 2 m/s 721 mmHg 75%
    07:00 +20°C° 0 mm 2 m/s 721 mmHg 72%
    08:00 +23°C° 0 mm 2 m/s 722 mmHg 64%
    09:00 +25°C° 0 mm 3 m/s 723 mmHg 56%
    10:00 +28°C° 0 mm 3 m/s 723 mmHg 48%
    11:00 +22°C° 1 mm 3 m/s 724 mmHg 61%
    12:00 +18°C° 1 mm 3 m/s 724 mmHg 73%
    13:00 +13°C° 1 mm 3 m/s 725 mmHg 86%
    14:00 +12°C° 0.2 mm 3 m/s 726 mmHg 87%
    15:00 +12°C° 0.2 mm 2 m/s 726 mmHg 87%
    16:00 +10°C° 0.2 mm 2 m/s 727 mmHg 88%
    17:00 +10°C° 0.1 mm 2 m/s 728 mmHg 89%
    18:00 +10°C° 0.1 mm 2 m/s 728 mmHg 90%
    19:00 +10°C° 0.1 mm 1 m/s 728 mmHg 90%
    20:00 +10°C° 0.1 mm 1 m/s 729 mmHg 90%
    21:00 +10°C° 0.1 mm 1 m/s 729 mmHg 90%
    22:00 +10°C° 0.1 mm 1 m/s 729 mmHg 90%
    23:00 +10°C° 0.3 mm 1 m/s 729 mmHg 90%

    25 Setembro, Terça-feira

    Tempo Temperatura Precipitação Vento Pressão Humidade
    00:00 +10°C° 0.3 mm 1 m/s 729 mmHg 89%
    01:00 +9°C° 0.3 mm 1 m/s 730 mmHg 88%
    02:00 +8°C° 0.1 mm 1 m/s 730 mmHg 89%
    03:00 +7°C° 0.1 mm 1 m/s 730 mmHg 90%
    04:00 +7°C° 0.1 mm 1 m/s 730 mmHg 91%
    05:00 +7°C° 0 mm 1 m/s 730 mmHg 89%
    06:00 +7°C° 0 mm 1 m/s 731 mmHg 86%
    07:00 +7°C° 0 mm 1 m/s 731 mmHg 84%
    08:00 +8°C° 0 mm 2 m/s 731 mmHg 73%
    09:00 +9°C° 0 mm 3 m/s 732 mmHg 61%
    10:00 +11°C° 0 mm 4 m/s 732 mmHg 50%
    11:00 +12°C° 0 mm 4 m/s 732 mmHg 45%
    12:00 +12°C° 0 mm 4 m/s 731 mmHg 40%
    13:00 +13°C° 0 mm 4 m/s 731 mmHg 34%
    14:00 +13°C° 0 mm 4 m/s 731 mmHg 35%
    15:00 +13°C° 0 mm 4 m/s 731 mmHg 36%
    16:00 +13°C° 0 mm 4 m/s 731 mmHg 36%
    17:00 +11°C° 0 mm 3 m/s 732 mmHg 43%
    18:00 +9°C° 0 mm 2 m/s 732 mmHg 50%
    19:00 +7°C° 0 mm 2 m/s 732 mmHg 57%
    20:00 +6°C° 0 mm 2 m/s 733 mmHg 59%
    21:00 +6°C° 0 mm 1 m/s 733 mmHg 61%
    22:00 +6°C° 0 mm 1 m/s 733 mmHg 63%
    23:00 +5°C° 0 mm 1 m/s 733 mmHg 65%

    26 Setembro, Quarta-feira

    Tempo Temperatura Precipitação Vento Pressão Humidade
    00:00 +5°C° 0 mm 1 m/s 733 mmHg 67%
    01:00 +4°C° 0 mm 1 m/s 733 mmHg 70%
    02:00 +4°C° 0 mm 1 m/s 734 mmHg 72%
    03:00 +3°C° 0 mm 1 m/s 734 mmHg 74%
    04:00 +3°C° 0 mm 1 m/s 734 mmHg 76%
    05:00 +4°C° 0 mm 1 m/s 734 mmHg 71%
    06:00 +5°C° 0 mm 1 m/s 734 mmHg 66%
    07:00 +6°C° 0 mm 1 m/s 734 mmHg 61%
    08:00 +9°C° 0 mm 1 m/s 734 mmHg 52%
    09:00 +11°C° 0 mm 1 m/s 735 mmHg 44%
    10:00 +14°C° 0 mm 2 m/s 735 mmHg 35%
    11:00 +15°C° 0 mm 2 m/s 734 mmHg 32%
    12:00 +16°C° 0 mm 2 m/s 734 mmHg 30%
    13:00 +17°C° 0 mm 2 m/s 733 mmHg 27%
    14:00 +17°C° 0 mm 2 m/s 733 mmHg 28%
    15:00 +16°C° 0 mm 2 m/s 732 mmHg 30%
    16:00 +16°C° 0 mm 2 m/s 732 mmHg 31%
    17:00 +14°C° 0 mm 1 m/s 732 mmHg 37%
    18:00 +11°C° 0 mm 1 m/s 732 mmHg 44%
    19:00 +8°C° 0 mm 1 m/s 732 mmHg 50%
    20:00 +8°C° 0 mm 1 m/s 732 mmHg 51%
    21:00 +8°C° 0 mm 1 m/s 732 mmHg 52%
    22:00 +7°C° 0 mm 1 m/s 732 mmHg 53%
    23:00 +7°C° 0 mm 1 m/s 732 mmHg 53%
    Mostrar mais